Location: Cassagne
(43.1218°N, 0.9901°E)
Time: 20:31:12
(UTC+00:00)

CZ-4C R/B - Pass Details

Date: 17 February 2020
Orbit: 641 x 1361 km, 63.4° (Epoch: 07 April)

Event Time Altitude Azimuth Distance (km) Brightness Sun altitude
Exits shadow 03:29:42 25° 27° (NNE) 1,658 4.0 -37.2°
Drops below altitude 10° 03:32:14 10° 33° (NNE) 2,593 5.2 -36.7°
Sets 03:35:02 0° 36° (NE) 3,659 6.2 -36.2°
